Year,Month,Day,Hour,Minute,Value (Times are PST for temperature in C)
2011,08,04,00,00,16.40
2011,08,04,00,01,16.30
2011,08,04,00,02,16.30
2011,08,04,00,03,16.30
2011,08,04,00,04,16.20
2011,08,04,00,05,16.20
2011,08,04,00,06,16.20
2011,08,04,00,07,16.20
2011,08,04,00,08,16.10
2011,08,04,00,09,16.10
2011,08,04,00,10,16.10
2011,08,04,00,11,16.10
2011,08,04,00,12,16.00
2011,08,04,00,13,16.00
2011,08,04,00,14,16.00
2011,08,04,00,15,15.90
2011,08,04,00,16,15.90
2011,08,04,00,17,15.90
2011,08,04,00,18,15.90
2011,08,04,00,19,15.90
2011,08,04,00,20,15.90
2011,08,04,00,21,15.90
2011,08,04,00,22,15.90
2011,08,04,00,23,15.90
2011,08,04,00,24,15.80
2011,08,04,00,25,15.80
2011,08,04,00,26,15.80
2011,08,04,00,27,15.80
2011,08,04,00,28,15.80
2011,08,04,00,29,15.80
2011,08,04,00,30,15.70
2011,08,04,00,31,15.70
2011,08,04,00,32,15.70
2011,08,04,00,33,15.70
2011,08,04,00,34,15.70
2011,08,04,00,35,15.70
2011,08,04,00,36,15.60
2011,08,04,00,37,15.60
2011,08,04,00,38,15.60
2011,08,04,00,39,15.60
2011,08,04,00,40,15.60
2011,08,04,00,41,15.50
2011,08,04,00,42,15.50
2011,08,04,00,43,15.50
2011,08,04,00,44,15.50
2011,08,04,00,45,15.40
2011,08,04,00,46,15.40
2011,08,04,00,47,15.40
2011,08,04,00,48,15.40
2011,08,04,00,49,15.40
2011,08,04,00,50,15.30
2011,08,04,00,51,15.30
2011,08,04,00,52,15.30
2011,08,04,00,53,15.30
2011,08,04,00,54,15.30
2011,08,04,00,55,15.30
2011,08,04,00,56,15.20
2011,08,04,00,57,15.20
2011,08,04,00,58,15.20
2011,08,04,00,59,15.20
2011,08,04,01,00,15.20
2011,08,04,01,01,15.20
2011,08,04,01,02,15.20
2011,08,04,01,03,15.20
2011,08,04,01,04,15.20
2011,08,04,01,05,15.20
2011,08,04,01,06,15.20
2011,08,04,01,07,15.10
2011,08,04,01,08,15.10
2011,08,04,01,09,15.10
2011,08,04,01,10,15.10
2011,08,04,01,11,15.10
2011,08,04,01,12,15.10
2011,08,04,01,13,15.10
2011,08,04,01,14,15.00
2011,08,04,01,15,15.00
2011,08,04,01,16,15.00
2011,08,04,01,17,15.00
2011,08,04,01,18,15.00
2011,08,04,01,19,15.00
2011,08,04,01,20,14.90
2011,08,04,01,21,14.90
2011,08,04,01,22,14.90
2011,08,04,01,23,14.90
2011,08,04,01,24,14.90
2011,08,04,01,25,14.90
2011,08,04,01,26,14.90
2011,08,04,01,27,14.80
2011,08,04,01,28,14.80
2011,08,04,01,29,14.80
2011,08,04,01,30,14.80
2011,08,04,01,31,14.80
2011,08,04,01,32,14.80
2011,08,04,01,33,14.70
2011,08,04,01,34,14.70
2011,08,04,01,35,14.70
2011,08,04,01,36,14.70
2011,08,04,01,37,14.70
2011,08,04,01,38,14.60
2011,08,04,01,39,14.60
2011,08,04,01,40,14.60
2011,08,04,01,41,14.60
2011,08,04,01,42,14.60
2011,08,04,01,43,14.50
2011,08,04,01,44,14.50
2011,08,04,01,45,14.50
2011,08,04,01,46,14.50
2011,08,04,01,47,14.50
2011,08,04,01,48,14.50
2011,08,04,01,49,14.40
2011,08,04,01,50,14.40
2011,08,04,01,51,14.40
2011,08,04,01,52,14.40
2011,08,04,01,53,14.40
2011,08,04,01,54,14.40
2011,08,04,01,55,14.40
2011,08,04,01,56,14.40
2011,08,04,01,57,14.40
2011,08,04,01,58,14.40
2011,08,04,01,59,14.40
2011,08,04,02,00,14.30
2011,08,04,02,01,14.30
2011,08,04,02,02,14.30
2011,08,04,02,03,14.30
2011,08,04,02,04,14.30
2011,08,04,02,05,14.30
2011,08,04,02,06,14.30
2011,08,04,02,07,14.30
2011,08,04,02,08,14.30
2011,08,04,02,09,14.30
2011,08,04,02,10,14.30
2011,08,04,02,11,14.30
2011,08,04,02,12,14.30
2011,08,04,02,13,14.20
2011,08,04,02,14,14.20
2011,08,04,02,15,14.20
2011,08,04,02,16,14.20
2011,08,04,02,17,14.20
2011,08,04,02,18,14.20
2011,08,04,02,19,14.20
2011,08,04,02,20,14.10
2011,08,04,02,21,14.10
2011,08,04,02,22,14.10
2011,08,04,02,23,14.10
2011,08,04,02,24,14.10
2011,08,04,02,25,14.10
2011,08,04,02,26,14.10
2011,08,04,02,27,14.00
2011,08,04,02,28,14.00
2011,08,04,02,29,14.00
2011,08,04,02,30,13.90
2011,08,04,02,31,13.90
2011,08,04,02,32,13.90
2011,08,04,02,33,13.90
2011,08,04,02,34,13.90
2011,08,04,02,35,13.90
2011,08,04,02,36,13.80
2011,08,04,02,37,13.80
2011,08,04,02,38,13.80
2011,08,04,02,39,13.80
2011,08,04,02,40,13.80
2011,08,04,02,41,13.80
2011,08,04,02,42,13.80
2011,08,04,02,43,13.70
2011,08,04,02,44,13.70
2011,08,04,02,45,13.70
2011,08,04,02,46,13.70
2011,08,04,02,47,13.70
2011,08,04,02,48,13.70
2011,08,04,02,49,13.70
2011,08,04,02,50,13.70
2011,08,04,02,51,13.70
2011,08,04,02,52,13.70
2011,08,04,02,53,13.70
2011,08,04,02,54,13.70
2011,08,04,02,55,13.60
2011,08,04,02,56,13.60
2011,08,04,02,57,13.60
2011,08,04,02,58,13.60
2011,08,04,02,59,13.60
2011,08,04,03,00,13.60
2011,08,04,03,01,13.50
2011,08,04,03,02,13.50
2011,08,04,03,03,13.50
2011,08,04,03,04,13.50
2011,08,04,03,05,13.50
2011,08,04,03,06,13.50
2011,08,04,03,07,13.50
2011,08,04,03,08,13.50
2011,08,04,03,09,13.40
2011,08,04,03,10,13.40
2011,08,04,03,11,13.40
2011,08,04,03,12,13.40
2011,08,04,03,13,13.40
2011,08,04,03,14,13.40
2011,08,04,03,15,13.30
2011,08,04,03,16,13.30
2011,08,04,03,17,13.30
2011,08,04,03,18,13.30
2011,08,04,03,19,13.30
2011,08,04,03,20,13.30
2011,08,04,03,21,13.30
2011,08,04,03,22,13.30
2011,08,04,03,23,13.20
2011,08,04,03,24,13.20
2011,08,04,03,25,13.20
2011,08,04,03,26,13.20
2011,08,04,03,27,13.20
2011,08,04,03,28,13.20
2011,08,04,03,29,13.20
2011,08,04,03,30,13.10
2011,08,04,03,31,13.10
2011,08,04,03,32,13.10
2011,08,04,03,33,13.10
2011,08,04,03,34,13.10
2011,08,04,03,35,13.10
2011,08,04,03,36,13.10
2011,08,04,03,37,13.10
2011,08,04,03,38,13.10
2011,08,04,03,39,13.10
2011,08,04,03,40,13.00
2011,08,04,03,41,13.00
2011,08,04,03,42,13.00
2011,08,04,03,43,13.00
2011,08,04,03,44,12.90
2011,08,04,03,45,12.90
2011,08,04,03,46,12.90
2011,08,04,03,47,12.90
2011,08,04,03,48,12.90
2011,08,04,03,49,12.90
2011,08,04,03,50,12.80
2011,08,04,03,51,12.80
2011,08,04,03,52,12.80
2011,08,04,03,53,12.80
2011,08,04,03,54,12.80
2011,08,04,03,55,12.80
2011,08,04,03,56,12.80
2011,08,04,03,57,12.80
2011,08,04,03,58,12.80
2011,08,04,03,59,12.80
2011,08,04,04,00,12.80
2011,08,04,04,01,12.80
2011,08,04,04,02,12.70
2011,08,04,04,03,12.70
2011,08,04,04,04,12.70
2011,08,04,04,05,12.70
2011,08,04,04,06,12.70
2011,08,04,04,07,12.70
2011,08,04,04,08,12.70
2011,08,04,04,09,12.70
2011,08,04,04,10,12.70
2011,08,04,04,11,12.70
2011,08,04,04,12,12.70
2011,08,04,04,13,12.70
2011,08,04,04,14,12.70
2011,08,04,04,15,12.70
2011,08,04,04,16,12.70
2011,08,04,04,17,12.60
2011,08,04,04,18,12.60
2011,08,04,04,19,12.60
2011,08,04,04,20,12.60
2011,08,04,04,21,12.60
2011,08,04,04,22,12.60
2011,08,04,04,23,12.60
2011,08,04,04,24,12.60
2011,08,04,04,25,12.60
2011,08,04,04,26,12.60
2011,08,04,04,27,12.60
2011,08,04,04,28,12.50
2011,08,04,04,29,12.50
2011,08,04,04,30,12.50
2011,08,04,04,31,12.50
2011,08,04,04,32,12.50
2011,08,04,04,33,12.50
2011,08,04,04,34,12.50
2011,08,04,04,35,12.50
2011,08,04,04,36,12.50
2011,08,04,04,37,12.50
2011,08,04,04,38,12.50
2011,08,04,04,39,12.50
2011,08,04,04,40,12.50
2011,08,04,04,41,12.50
2011,08,04,04,42,12.40
2011,08,04,04,43,12.40
2011,08,04,04,44,12.40
2011,08,04,04,45,12.50
2011,08,04,04,46,12.40
2011,08,04,04,47,12.40
2011,08,04,04,48,12.40
2011,08,04,04,49,12.40
2011,08,04,04,50,12.40
2011,08,04,04,51,12.50
2011,08,04,04,52,12.50
2011,08,04,04,53,12.50
2011,08,04,04,54,12.50
2011,08,04,04,55,12.50
2011,08,04,04,56,12.50
2011,08,04,04,57,12.50
2011,08,04,04,58,12.50
2011,08,04,04,59,12.50
2011,08,04,05,00,12.60
2011,08,04,05,01,12.60
2011,08,04,05,02,12.60
2011,08,04,05,03,12.60
2011,08,04,05,04,12.60
2011,08,04,05,05,12.60
2011,08,04,05,06,12.60
2011,08,04,05,07,12.60
2011,08,04,05,08,12.60
2011,08,04,05,09,12.60
2011,08,04,05,10,12.60
2011,08,04,05,11,12.60
2011,08,04,05,12,12.60
2011,08,04,05,13,12.60
2011,08,04,05,14,12.60
2011,08,04,05,15,12.60
2011,08,04,05,16,12.60
2011,08,04,05,17,12.60
2011,08,04,05,18,12.60
2011,08,04,05,19,12.60
2011,08,04,05,20,12.60
2011,08,04,05,21,12.60
2011,08,04,05,22,12.60
2011,08,04,05,23,12.60
2011,08,04,05,24,12.60
2011,08,04,05,25,12.50
2011,08,04,05,26,12.50
2011,08,04,05,27,12.50
2011,08,04,05,28,12.50
2011,08,04,05,29,12.50
2011,08,04,05,30,12.40
2011,08,04,05,31,12.40
2011,08,04,05,32,12.40
2011,08,04,05,33,12.40
2011,08,04,05,34,12.40
2011,08,04,05,35,12.30
2011,08,04,05,36,12.30
2011,08,04,05,37,12.30
2011,08,04,05,38,12.30
2011,08,04,05,39,12.30
2011,08,04,05,40,12.30
2011,08,04,05,41,12.30
2011,08,04,05,42,12.30
2011,08,04,05,43,12.20
2011,08,04,05,44,12.20
2011,08,04,05,45,12.20
2011,08,04,05,46,12.20
2011,08,04,05,47,12.20
2011,08,04,05,48,12.20
2011,08,04,05,49,12.20
2011,08,04,05,50,12.20
2011,08,04,05,51,12.20
2011,08,04,05,52,12.20
2011,08,04,05,53,12.20
2011,08,04,05,54,12.20
2011,08,04,05,55,12.20
2011,08,04,05,56,12.20
2011,08,04,05,57,12.10
2011,08,04,05,58,12.10
2011,08,04,05,59,12.10
2011,08,04,06,00,12.10
2011,08,04,06,01,12.00
2011,08,04,06,02,12.00
2011,08,04,06,03,12.00
2011,08,04,06,04,12.00
2011,08,04,06,05,12.00
2011,08,04,06,06,12.00
2011,08,04,06,07,11.90
2011,08,04,06,08,11.90
2011,08,04,06,09,12.00
2011,08,04,06,10,12.00
2011,08,04,06,11,12.00
2011,08,04,06,12,12.00
2011,08,04,06,13,12.00
2011,08,04,06,14,12.00
2011,08,04,06,15,12.00
2011,08,04,06,16,12.00
2011,08,04,06,17,12.00
2011,08,04,06,18,12.00
2011,08,04,06,19,12.00
2011,08,04,06,20,12.00
2011,08,04,06,21,12.00
2011,08,04,06,22,12.00
2011,08,04,06,23,12.00
2011,08,04,06,24,12.00
2011,08,04,06,25,12.00
2011,08,04,06,26,12.10
2011,08,04,06,27,12.10
2011,08,04,06,28,12.10
2011,08,04,06,29,12.10
2011,08,04,06,30,12.10
2011,08,04,06,31,12.10
2011,08,04,06,32,12.10
2011,08,04,06,33,12.10
2011,08,04,06,34,12.10
2011,08,04,06,35,12.10
2011,08,04,06,36,12.10
2011,08,04,06,37,12.20
2011,08,04,06,38,12.20
2011,08,04,06,39,12.20
2011,08,04,06,40,12.20
2011,08,04,06,41,12.20
2011,08,04,06,42,12.20
2011,08,04,06,43,12.20
2011,08,04,06,44,12.30
2011,08,04,06,45,12.30
2011,08,04,06,46,12.30
2011,08,04,06,47,12.30
2011,08,04,06,48,12.40
2011,08,04,06,49,12.40
2011,08,04,06,50,12.40
2011,08,04,06,51,12.40
2011,08,04,06,52,12.40
2011,08,04,06,53,12.40
2011,08,04,06,54,12.50
2011,08,04,06,55,12.50
2011,08,04,06,56,12.50
2011,08,04,06,57,12.50
2011,08,04,06,58,12.60
2011,08,04,06,59,12.60
2011,08,04,07,00,12.60
2011,08,04,07,01,12.60
2011,08,04,07,02,12.60
2011,08,04,07,03,12.60
2011,08,04,07,04,12.70
2011,08,04,07,05,12.70
2011,08,04,07,06,12.70
2011,08,04,07,07,12.70
2011,08,04,07,08,12.70
2011,08,04,07,09,12.70
2011,08,04,07,10,12.70
2011,08,04,07,11,12.60
2011,08,04,07,12,12.60
2011,08,04,07,13,12.60
2011,08,04,07,14,12.60
2011,08,04,07,15,12.70
2011,08,04,07,16,12.70
2011,08,04,07,17,12.70
2011,08,04,07,18,12.70
2011,08,04,07,19,12.70
2011,08,04,07,20,12.80
2011,08,04,07,21,12.80
2011,08,04,07,22,12.80
2011,08,04,07,23,12.90
2011,08,04,07,24,12.90
2011,08,04,07,25,12.90
2011,08,04,07,26,12.90
2011,08,04,07,27,13.00
2011,08,04,07,28,13.00
2011,08,04,07,29,13.00
2011,08,04,07,30,13.10
2011,08,04,07,31,13.20
2011,08,04,07,32,13.20
2011,08,04,07,33,13.30
2011,08,04,07,34,13.30
2011,08,04,07,35,13.40
2011,08,04,07,36,13.40
2011,08,04,07,37,13.50
2011,08,04,07,38,13.60
2011,08,04,07,39,13.60
2011,08,04,07,40,13.70
2011,08,04,07,41,13.70
2011,08,04,07,42,13.80
2011,08,04,07,43,13.80
2011,08,04,07,44,13.80
2011,08,04,07,45,13.80
2011,08,04,07,46,13.90
2011,08,04,07,47,13.90
2011,08,04,07,48,14.00
2011,08,04,07,49,14.10
2011,08,04,07,50,14.10
2011,08,04,07,51,14.20
2011,08,04,07,52,14.30
2011,08,04,07,53,14.40
2011,08,04,07,54,14.40
2011,08,04,07,55,14.50
2011,08,04,07,56,14.60
2011,08,04,07,57,14.70
2011,08,04,07,58,14.80
2011,08,04,07,59,14.80
2011,08,04,08,00,15.00
2011,08,04,08,01,15.10
2011,08,04,08,02,15.20
2011,08,04,08,03,15.30
2011,08,04,08,04,15.40
2011,08,04,08,05,15.50
2011,08,04,08,06,15.60
2011,08,04,08,07,15.60
2011,08,04,08,08,15.70
2011,08,04,08,09,15.70
2011,08,04,08,10,15.80
2011,08,04,08,11,15.90
2011,08,04,08,12,15.90
2011,08,04,08,13,16.00
2011,08,04,08,14,16.00
2011,08,04,08,15,16.00
2011,08,04,08,16,16.10
2011,08,04,08,17,16.10
2011,08,04,08,18,16.20
2011,08,04,08,19,16.20
2011,08,04,08,20,16.30
2011,08,04,08,21,16.30
2011,08,04,08,22,16.30
2011,08,04,08,23,16.40
2011,08,04,08,24,16.40
2011,08,04,08,25,16.50
2011,08,04,08,26,16.50
2011,08,04,08,27,16.60
2011,08,04,08,28,16.60
2011,08,04,08,29,16.60
2011,08,04,08,30,16.60
2011,08,04,08,31,16.60
2011,08,04,08,32,16.60
2011,08,04,08,33,16.50
2011,08,04,08,34,16.50
2011,08,04,08,35,16.40
2011,08,04,08,36,16.40
2011,08,04,08,37,16.30
2011,08,04,08,38,16.30
2011,08,04,08,39,16.30
2011,08,04,08,40,16.30
2011,08,04,08,41,16.30
2011,08,04,08,42,16.30
2011,08,04,08,43,16.30
2011,08,04,08,44,16.40
2011,08,04,08,45,16.40
2011,08,04,08,46,16.40
2011,08,04,08,47,16.50
2011,08,04,08,48,16.50
2011,08,04,08,49,16.50
2011,08,04,08,50,16.50
2011,08,04,08,51,16.50
2011,08,04,08,52,16.50
2011,08,04,08,53,16.50
2011,08,04,08,54,16.50
2011,08,04,08,55,16.50
2011,08,04,08,56,16.60
2011,08,04,08,57,16.60
2011,08,04,08,58,16.60
2011,08,04,08,59,16.70
2011,08,04,09,00,16.70
2011,08,04,09,01,16.80
2011,08,04,09,02,16.80
2011,08,04,09,03,16.80
2011,08,04,09,04,16.90
2011,08,04,09,05,16.90
2011,08,04,09,06,16.90
2011,08,04,09,07,16.90
2011,08,04,09,08,17.00
2011,08,04,09,09,17.00
2011,08,04,09,10,17.10
2011,08,04,09,11,17.10
2011,08,04,09,12,17.20
2011,08,04,09,13,17.20
2011,08,04,09,14,17.30
2011,08,04,09,15,17.30
2011,08,04,09,16,17.30
2011,08,04,09,17,17.40
2011,08,04,09,18,17.40
2011,08,04,09,19,17.50
2011,08,04,09,20,17.60
2011,08,04,09,21,17.70
2011,08,04,09,22,17.70
2011,08,04,09,23,17.80
2011,08,04,09,24,17.80
2011,08,04,09,25,17.80
2011,08,04,09,26,17.80
2011,08,04,09,27,17.80
2011,08,04,09,28,17.90
2011,08,04,09,29,17.90
2011,08,04,09,30,17.90
2011,08,04,09,31,18.00
2011,08,04,09,32,18.10
2011,08,04,09,33,18.20
2011,08,04,09,34,18.30
2011,08,04,09,35,18.40
2011,08,04,09,36,18.50
2011,08,04,09,37,18.50
2011,08,04,09,38,18.60
2011,08,04,09,39,18.70
2011,08,04,09,40,18.80
2011,08,04,09,41,18.90
2011,08,04,09,42,18.90
2011,08,04,09,43,19.00
2011,08,04,09,44,19.10
2011,08,04,09,45,19.10
2011,08,04,09,46,19.10
2011,08,04,09,47,19.10
2011,08,04,09,48,19.10
2011,08,04,09,49,19.20
2011,08,04,09,50,19.20
2011,08,04,09,51,19.30
2011,08,04,09,52,19.30
2011,08,04,09,53,19.30
2011,08,04,09,54,19.30
2011,08,04,09,55,19.30
2011,08,04,09,56,19.30
2011,08,04,09,57,19.30
2011,08,04,09,58,19.30
2011,08,04,09,59,19.20
2011,08,04,10,00,19.20
2011,08,04,10,01,19.20
2011,08,04,10,02,19.20
2011,08,04,10,03,19.10
2011,08,04,10,04,19.10
2011,08,04,10,05,19.10
2011,08,04,10,06,19.10
2011,08,04,10,07,19.10
2011,08,04,10,08,19.10
2011,08,04,10,09,19.10
2011,08,04,10,10,19.20
2011,08,04,10,11,19.20
2011,08,04,10,12,19.30
2011,08,04,10,13,19.30
2011,08,04,10,14,19.30
2011,08,04,10,15,19.40
2011,08,04,10,16,19.40
2011,08,04,10,17,19.50
2011,08,04,10,18,19.50
2011,08,04,10,19,19.50
2011,08,04,10,20,19.50
2011,08,04,10,21,19.50
2011,08,04,10,22,19.60
2011,08,04,10,23,19.70
2011,08,04,10,24,19.80
2011,08,04,10,25,19.90
2011,08,04,10,26,20.00
2011,08,04,10,27,20.10
2011,08,04,10,28,20.20
2011,08,04,10,29,20.30
2011,08,04,10,30,20.30
2011,08,04,10,31,20.30
2011,08,04,10,32,20.30
2011,08,04,10,33,20.30
2011,08,04,10,34,20.30
2011,08,04,10,35,20.40
2011,08,04,10,36,20.40
2011,08,04,10,37,20.50
2011,08,04,10,38,20.60
2011,08,04,10,39,20.60
2011,08,04,10,40,20.70
2011,08,04,10,41,20.80
2011,08,04,10,42,20.90
2011,08,04,10,43,21.00
2011,08,04,10,44,21.10
2011,08,04,10,45,21.10
2011,08,04,10,46,21.10
2011,08,04,10,47,21.10
2011,08,04,10,48,21.00
2011,08,04,10,49,21.00
2011,08,04,10,50,21.10
2011,08,04,10,51,21.10
2011,08,04,10,52,21.10
2011,08,04,10,53,21.20
2011,08,04,10,54,21.20
2011,08,04,10,55,21.20
2011,08,04,10,56,21.20
2011,08,04,10,57,21.20
2011,08,04,10,58,21.30
2011,08,04,10,59,21.40
2011,08,04,11,00,21.50
2011,08,04,11,01,21.60
2011,08,04,11,02,21.70
2011,08,04,11,03,21.80
2011,08,04,11,04,21.90
2011,08,04,11,05,22.00
2011,08,04,11,06,22.10
2011,08,04,11,07,22.20
2011,08,04,11,08,22.30
2011,08,04,11,09,22.30
2011,08,04,11,10,22.50
2011,08,04,11,11,22.60
2011,08,04,11,12,22.70
2011,08,04,11,13,22.80
2011,08,04,11,14,22.80
2011,08,04,11,15,22.90
2011,08,04,11,16,22.90
2011,08,04,11,17,22.90
2011,08,04,11,18,22.90
2011,08,04,11,19,22.80
2011,08,04,11,20,22.70
2011,08,04,11,21,22.70
2011,08,04,11,22,22.70
2011,08,04,11,23,22.70
2011,08,04,11,24,22.70
2011,08,04,11,25,22.70
2011,08,04,11,26,22.70
2011,08,04,11,27,22.70
2011,08,04,11,28,22.70
2011,08,04,11,29,22.70
2011,08,04,11,30,22.70
2011,08,04,11,31,22.80
2011,08,04,11,32,22.80
2011,08,04,11,33,22.90
2011,08,04,11,34,23.00
2011,08,04,11,35,23.10
2011,08,04,11,36,23.20
2011,08,04,11,37,23.30
2011,08,04,11,38,23.30
2011,08,04,11,39,23.40
2011,08,04,11,40,23.40
2011,08,04,11,41,23.40
2011,08,04,11,42,23.40
2011,08,04,11,43,23.40
2011,08,04,11,44,23.50
2011,08,04,11,45,23.50
2011,08,04,11,46,23.50
2011,08,04,11,47,23.50
2011,08,04,11,48,23.60
2011,08,04,11,49,23.70
2011,08,04,11,50,23.70
2011,08,04,11,51,23.80
2011,08,04,11,52,23.80
2011,08,04,11,53,23.90
2011,08,04,11,54,24.00
2011,08,04,11,55,24.10
2011,08,04,11,56,24.10
2011,08,04,11,57,24.20
2011,08,04,11,58,24.30
2011,08,04,11,59,24.40
2011,08,04,12,00,24.50
2011,08,04,12,01,24.50
2011,08,04,12,02,24.60
2011,08,04,12,03,24.60
2011,08,04,12,04,24.60
2011,08,04,12,05,24.70
2011,08,04,12,06,24.70
2011,08,04,12,07,24.80
2011,08,04,12,08,24.90
2011,08,04,12,09,25.00
2011,08,04,12,10,25.10
2011,08,04,12,11,25.20
2011,08,04,12,12,25.20
2011,08,04,12,13,25.20
2011,08,04,12,14,25.20
2011,08,04,12,15,25.30
2011,08,04,12,16,25.30
2011,08,04,12,17,25.40
2011,08,04,12,18,25.50
2011,08,04,12,19,25.50
2011,08,04,12,20,25.60
2011,08,04,12,21,25.60
2011,08,04,12,22,25.60
2011,08,04,12,23,25.60
2011,08,04,12,24,25.70
2011,08,04,12,25,25.70
2011,08,04,12,26,25.70
2011,08,04,12,27,25.70
2011,08,04,12,28,25.70
2011,08,04,12,29,25.60
2011,08,04,12,30,25.60
2011,08,04,12,31,25.60
2011,08,04,12,32,25.60
2011,08,04,12,33,25.60
2011,08,04,12,34,25.60
2011,08,04,12,35,25.60
2011,08,04,12,36,25.60
2011,08,04,12,37,25.60
2011,08,04,12,38,25.50
2011,08,04,12,39,25.50
2011,08,04,12,40,25.50
2011,08,04,12,41,25.60
2011,08,04,12,42,25.60
2011,08,04,12,43,25.60
2011,08,04,12,44,25.60
2011,08,04,12,45,25.60
2011,08,04,12,46,25.70
2011,08,04,12,47,25.70
2011,08,04,12,48,25.80
2011,08,04,12,49,25.90
2011,08,04,12,50,25.90
2011,08,04,12,51,25.90
2011,08,04,12,52,26.00
2011,08,04,12,53,26.10
2011,08,04,12,54,26.10
2011,08,04,12,55,26.10
2011,08,04,12,56,26.10
2011,08,04,12,57,26.00
2011,08,04,12,58,25.90
2011,08,04,12,59,25.80
2011,08,04,13,00,25.80
2011,08,04,13,01,25.80
2011,08,04,13,02,25.80
2011,08,04,13,03,25.80
2011,08,04,13,04,25.80
2011,08,04,13,05,25.80
2011,08,04,13,06,25.80
2011,08,04,13,07,25.80
2011,08,04,13,08,25.80
2011,08,04,13,09,25.70
2011,08,04,13,10,25.70
2011,08,04,13,11,25.70
2011,08,04,13,12,25.60
2011,08,04,13,13,25.60
2011,08,04,13,14,25.70
2011,08,04,13,15,25.70
2011,08,04,13,16,25.80
2011,08,04,13,17,25.80
2011,08,04,13,18,25.80
2011,08,04,13,19,25.80
2011,08,04,13,20,25.80
2011,08,04,13,21,25.70
2011,08,04,13,22,25.70
2011,08,04,13,23,25.70
2011,08,04,13,24,25.80
2011,08,04,13,25,25.90
2011,08,04,13,26,26.00
2011,08,04,13,27,26.10
2011,08,04,13,28,26.20
2011,08,04,13,29,26.30
2011,08,04,13,30,26.30
2011,08,04,13,31,26.30
2011,08,04,13,32,26.40
2011,08,04,13,33,26.40
2011,08,04,13,34,26.40
2011,08,04,13,35,26.50
2011,08,04,13,36,26.60
2011,08,04,13,37,26.60
2011,08,04,13,38,26.60
2011,08,04,13,39,26.60
2011,08,04,13,40,26.60
2011,08,04,13,41,26.60
2011,08,04,13,42,26.60
2011,08,04,13,43,26.60
2011,08,04,13,44,26.70
2011,08,04,13,45,26.60
2011,08,04,13,46,26.60
2011,08,04,13,47,26.70
2011,08,04,13,48,26.80
2011,08,04,13,49,26.80
2011,08,04,13,50,26.80
2011,08,04,13,51,26.80
2011,08,04,13,52,26.70
2011,08,04,13,53,26.70
2011,08,04,13,54,26.80
2011,08,04,13,55,26.80
2011,08,04,13,56,26.80
2011,08,04,13,57,26.80
2011,08,04,13,58,26.80
2011,08,04,13,59,26.80
2011,08,04,14,00,26.80
2011,08,04,14,01,26.80
2011,08,04,14,02,26.80
2011,08,04,14,03,26.80
2011,08,04,14,04,26.70
2011,08,04,14,05,26.70
2011,08,04,14,06,26.70
2011,08,04,14,07,26.70
2011,08,04,14,08,26.70
2011,08,04,14,09,26.60
2011,08,04,14,10,26.60
2011,08,04,14,11,26.70
2011,08,04,14,12,26.70
2011,08,04,14,13,26.70
2011,08,04,14,14,26.70
2011,08,04,14,15,26.70
2011,08,04,14,16,26.80
2011,08,04,14,17,26.80
2011,08,04,14,18,26.90
2011,08,04,14,19,26.90
2011,08,04,14,20,26.80
2011,08,04,14,21,26.80
2011,08,04,14,22,26.90
2011,08,04,14,23,26.90
2011,08,04,14,24,26.90
2011,08,04,14,25,26.80
2011,08,04,14,26,26.80
2011,08,04,14,27,26.80
2011,08,04,14,28,26.80
2011,08,04,14,29,26.80
2011,08,04,14,30,26.80
2011,08,04,14,31,26.80
2011,08,04,14,32,26.80
2011,08,04,14,33,26.80
2011,08,04,14,34,26.90
2011,08,04,14,35,27.00
2011,08,04,14,36,27.00
2011,08,04,14,37,26.90
2011,08,04,14,38,26.90
2011,08,04,14,39,26.90
2011,08,04,14,40,26.90
2011,08,04,14,41,27.00
2011,08,04,14,42,27.00
2011,08,04,14,43,26.90
2011,08,04,14,44,26.90
2011,08,04,14,45,26.90
2011,08,04,14,46,27.00
2011,08,04,14,47,27.00
2011,08,04,14,48,27.10
2011,08,04,14,49,27.10
2011,08,04,14,50,27.00
2011,08,04,14,51,27.00
2011,08,04,14,52,27.00
2011,08,04,14,53,26.90
2011,08,04,14,54,26.90
2011,08,04,14,55,26.80
2011,08,04,14,56,26.70
2011,08,04,14,57,26.70
2011,08,04,14,58,26.70
2011,08,04,14,59,26.70
2011,08,04,15,00,26.80
2011,08,04,15,01,26.80
2011,08,04,15,02,26.80
2011,08,04,15,03,26.80
2011,08,04,15,04,26.80
2011,08,04,15,05,26.70
2011,08,04,15,06,26.70
2011,08,04,15,07,26.70
2011,08,04,15,08,26.70
2011,08,04,15,09,26.70
2011,08,04,15,10,26.70
2011,08,04,15,11,26.80
2011,08,04,15,12,26.70
2011,08,04,15,13,26.60
2011,08,04,15,14,26.60
2011,08,04,15,15,26.50
2011,08,04,15,16,26.50
2011,08,04,15,17,26.40
2011,08,04,15,18,26.40
2011,08,04,15,19,26.50
2011,08,04,15,20,26.50
2011,08,04,15,21,26.50
2011,08,04,15,22,26.50
2011,08,04,15,23,26.50
2011,08,04,15,24,26.50
2011,08,04,15,25,26.50
2011,08,04,15,26,26.50
2011,08,04,15,27,26.60
2011,08,04,15,28,26.60
2011,08,04,15,29,26.70
2011,08,04,15,30,26.70
2011,08,04,15,31,26.70
2011,08,04,15,32,26.70
2011,08,04,15,33,26.60
2011,08,04,15,34,26.60
2011,08,04,15,35,26.60
2011,08,04,15,36,26.60
2011,08,04,15,37,26.70
2011,08,04,15,38,26.60
2011,08,04,15,39,26.60
2011,08,04,15,40,26.60
2011,08,04,15,41,26.60
2011,08,04,15,42,26.60
2011,08,04,15,43,26.60
2011,08,04,15,44,26.70
2011,08,04,15,45,26.60
2011,08,04,15,46,26.60
2011,08,04,15,47,26.60
2011,08,04,15,48,26.70
2011,08,04,15,49,26.70
2011,08,04,15,50,26.70
2011,08,04,15,51,26.70
2011,08,04,15,52,26.70
2011,08,04,15,53,26.70
2011,08,04,15,54,26.70
2011,08,04,15,55,26.70
2011,08,04,15,56,26.70
2011,08,04,15,57,26.70
2011,08,04,15,58,26.70
2011,08,04,15,59,26.70
2011,08,04,16,00,26.70
2011,08,04,16,01,26.60
2011,08,04,16,02,26.70
2011,08,04,16,03,26.70
2011,08,04,16,04,26.70
2011,08,04,16,05,26.70
2011,08,04,16,06,26.70
2011,08,04,16,07,26.70
2011,08,04,16,08,26.70
2011,08,04,16,09,26.70
2011,08,04,16,10,26.70
2011,08,04,16,11,26.70
2011,08,04,16,12,26.70
2011,08,04,16,13,26.70
2011,08,04,16,14,26.70
2011,08,04,16,15,26.70
2011,08,04,16,16,26.60
2011,08,04,16,17,26.60
2011,08,04,16,18,26.60
2011,08,04,16,19,26.50
2011,08,04,16,20,26.50
2011,08,04,16,21,26.50
2011,08,04,16,22,26.60
2011,08,04,16,23,26.50
2011,08,04,16,24,26.50
2011,08,04,16,25,26.50
2011,08,04,16,26,26.50
2011,08,04,16,27,26.50
2011,08,04,16,28,26.50
2011,08,04,16,29,26.40
2011,08,04,16,30,26.40
2011,08,04,16,31,26.40
2011,08,04,16,32,26.40
2011,08,04,16,33,26.40
2011,08,04,16,34,26.50
2011,08,04,16,35,26.50
2011,08,04,16,36,26.50
2011,08,04,16,37,26.50
2011,08,04,16,38,26.60
2011,08,04,16,39,26.60
2011,08,04,16,40,26.60
2011,08,04,16,41,26.60
2011,08,04,16,42,26.60
2011,08,04,16,43,26.50
2011,08,04,16,44,26.50
2011,08,04,16,45,26.50
2011,08,04,16,46,26.50
2011,08,04,16,47,26.40
2011,08,04,16,48,26.40
2011,08,04,16,49,26.40
2011,08,04,16,50,26.40
2011,08,04,16,51,26.40
2011,08,04,16,52,26.50
2011,08,04,16,53,26.50
2011,08,04,16,54,26.50
2011,08,04,16,55,26.40
2011,08,04,16,56,26.40
2011,08,04,16,57,26.30
2011,08,04,16,58,26.30
2011,08,04,16,59,26.30
2011,08,04,17,00,26.30
2011,08,04,17,01,26.20
2011,08,04,17,02,26.20
2011,08,04,17,03,26.20
2011,08,04,17,04,26.20
2011,08,04,17,05,26.10
2011,08,04,17,06,26.10
2011,08,04,17,07,26.10
2011,08,04,17,08,26.10
2011,08,04,17,09,26.10
2011,08,04,17,10,26.10
2011,08,04,17,11,26.10
2011,08,04,17,12,26.00
2011,08,04,17,13,26.00
2011,08,04,17,14,25.90
2011,08,04,17,15,25.90
2011,08,04,17,16,25.90
2011,08,04,17,17,25.90
2011,08,04,17,18,25.90
2011,08,04,17,19,25.90